Find Kosmos-2016

NORAD ID: 19921 Int'l Des: 1989-028 Owner: VMF Country: SU operational
LEOCIRCULARPOLAR

Live Position

Loading 3D Globe...

About Kosmos-2016

Description loading...

Upcoming Passes

Passes for default location (London). Set your location on the main map for personalized predictions.

Altitude History

Loading altitude history...

Two-Line Element Set

1 19921U 89028A 26110.40557316 .00000057 00000-0 43093-4 0 9995
2 19921 82.9629 230.2256 0039374 355.1173 66.2899 13.75338503857931
Epoch: Apr 20, 2026 • Age: 15 hours

Current Status

Altitude 1002.2 km
Velocity 7.35 km/s
Sub-Earth Point -80.82°S, 40.01°W
Launch Date Apr 4, 1989
Age 37 years
Type other

Technical Details

Classification Payload
Mass 800.00 kg
Dry Mass 800.00 kg
Total Mass 800.00 kg
Length 5.00 m
Diameter 2.10 m
Span 17.00 m
Shape Cyl + Ant
Manufacturer OAZ
Bus Type KAUR-1 11F627
Phase Status In Orbit
Owner/State VMF/SU

Most Searched